This is the latest recevied weather packets stored in our database for station/object KG2V. If no packets are shown the sender has not sent any weather packets the latest 10 day(s).
| Time | Temp. | Humidity | Pressure | Rain* | Wind** | Luminosity | Snow |
|---|---|---|---|---|---|---|---|
| 1777677637 | 6.11° C | 91% | 1007.6 hPa | 0 mm | - | 33 W/m² | - |
| 1777677335 | 6.11° C | 90% | 1007.7 hPa | 0 mm | - | 43 W/m² | - |
| 1777677033 | 6.11° C | 90% | 1007.6 hPa | 0 mm | - | 45 W/m² | - |
| 1777676732 | 6.11° C | 91% | 1007.7 hPa | 0 mm | - | 58 W/m² | - |
| 1777676429 | 6.11° C | 92% | 1007.7 hPa | 0 mm | - | 50 W/m² | - |
| 1777676127 | 6.11° C | 91% | 1007.9 hPa | 0 mm | - | 46 W/m² | - |
| 1777675822 | 6.11° C | 91% | 1007.7 hPa | 0 mm | - | 52 W/m² | - |
| 1777675521 | 6.11° C | 91% | 1007.9 hPa | 0 mm | - | 45 W/m² | - |
| 1777675217 | 6.11° C | 91% | 1007.9 hPa | 0 mm | - | 60 W/m² | - |
| 1777674913 | 6.11° C | 91% | 1007.7 hPa | 0 mm | - | 67 W/m² | - |
| 1777674610 | 6.11° C | 91% | 1008 hPa | 0 mm | - | 78 W/m² | - |
| 1777674307 | 6.11° C | 90% | 1008 hPa | 0 mm | - | 70 W/m² | - |
| 1777674003 | 6.11° C | 90% | 1008 hPa | 0 mm | - | 56 W/m² | - |
| 1777673699 | 6.67° C | 90% | 1008 hPa | 0 mm | - | 55 W/m² | - |
| 1777673397 | 6.67° C | 90% | 1008.2 hPa | 0 mm | - | 110 W/m² | - |
| 1777673095 | 6.67° C | 90% | 1008.1 hPa | 0 mm | - | 114 W/m² | - |
| 1777672790 | 6.67° C | 91% | 1008.2 hPa | 0 mm | - | 70 W/m² | - |
| 1777672488 | 6.67° C | 91% | 1008.1 hPa | 0 mm | - | 87 W/m² | - |
| 1777672183 | 6.67° C | 91% | 1008 hPa | 1.27 mm | - | 109 W/m² | - |
| 1777671878 | 6.67° C | 90% | 1008 hPa | 1.27 mm | - | 90 W/m² | - |
| 1777671574 | 6.11° C | 90% | 1008 hPa | 0 mm | - | 94 W/m² | - |
| 1777671272 | 6.11° C | 90% | 1008.1 hPa | 0 mm | - | 88 W/m² | - |
| 1777670966 | 6.11° C | 90% | 1008 hPa | 0 mm | - | 101 W/m² | - |
| 1777670664 | 6.11° C | 90% | 1007.7 hPa | 0 mm | - | 111 W/m² | - |
| 1777670360 | 6.11° C | 91% | 1008.1 hPa | 0 mm | - | 134 W/m² | - |
* Rain latest hour (hover to see other rain measurements)
** Current wind speed in m/s (hover to see current wind gust speed)